CW9350 Weather Reports


time (UTC)temp
C
wind
direction
speed
KPH
gust
KPH
rain 1hr
cm
rain 24hr
cm
rain mn
cm
humidity
%
barometer
mb
20260509054602 11 130 0.0 0.0 0.00 0.00 0.00 90 1004.2
20260509053051 11 130 1.6 0.0 0.00 0.00 0.00 90 1004.1
20260509051547 13 130 0.0 0.0 0.00 0.00 0.00 90 1003.6
20260509050050 13 130 0.0 0.0 0.00 0.00 0.00 90 1003.6
20260509044547 15 130 0.0 0.0 0.00 0.00 0.00 90 1003.3
20260509043048 13 130 0.0 0.0 0.00 0.00 0.00 90 1003.5
20260509041545 14 130 0.0 0.0 0.00 0.00 0.00 90 1002.9
20260509040107 15 130 0.0 0.0 0.00 0.00 0.00 90 1002.9
20260509034549 17 130 0.0 0.0 0.00 0.00 0.00 90 1002.7
20260509033046 17 130 0.0 0.0 0.00 0.00 0.00 90 1002.5
20260509031544 17 130 1.6 0.0 0.00 0.00 0.00 90 1002.2
20260509030047 18 130 0.0 0.0 0.00 0.00 0.00 90 1001.9
20260509024544 18 130 0.0 0.0 0.00 0.00 0.00 90 1001.6
20260509023044 19 130 0.0 0.0 0.00 0.00 0.00 90 1001.3
20260509021544 20 130 0.0 0.0 0.00 0.00 0.00 90 1001.1
20260509020041 20 130 0.0 0.0 0.00 0.00 0.00 90 1001.0
20260509014538 21 130 0.0 0.0 0.00 0.00 0.00 90 1001.1
20260509013043 21 130 0.0 0.0 0.00 0.00 0.00 90 1001.0
20260509011550 21 130 0.0 0.0 0.00 0.00 0.00 90 1001.1
20260509010040 22 130 0.0 0.0 0.00 0.00 0.00 90 1001.0
20260509004542 22 130 0.0 0.0 0.00 0.00 0.00 90 1001.0
20260509003033 22 130 0.0 0.0 0.00 0.00 0.00 90 1001.2
20260509001532 22 130 0.0 0.0 0.00 0.00 0.00 90 1001.2
20260509000030 23 130 0.0 0.0 0.00 0.00 0.00 90 1001.4
20260508234528 22 130 3.2 0.0 0.00 0.00 0.00 90 1001.3
20260508233027 22 130 0.0 0.0 0.00 0.00 0.00 90 1001.5
20260508231525 22 130 0.0 0.0 0.00 0.00 0.00 90 1001.8
20260508230025 22 130 0.0 0.0 0.00 0.00 0.00 90 1002.0
20260508224522 22 130 0.0 0.0 0.00 0.00 0.00 90 1002.1
20260508223036 22 130 0.0 0.0 0.00 0.00 0.00 90 1002.2
20260508221519 22 130 0.0 0.0 0.00 0.00 0.00 90 1002.6
20260508220021 22 130 0.0 0.0 0.00 0.00 0.00 90 1002.9
20260508214515 21 130 0.0 0.0 0.00 0.00 0.00 90 1003.2
20260508213016 22 130 0.0 0.0 0.00 0.00 0.00 90 1003.4
20260508211515 21 130 0.0 0.0 0.00 0.00 0.00 90 1003.5
20260508210014 21 130 0.0 0.0 0.00 0.00 0.00 90 1003.5
20260508204521 21 130 0.0 0.0 0.00 0.00 0.00 90 1003.8
20260508203011 21 130 0.0 0.0 0.00 0.00 0.00 90 1004.1
20260508201511 20 130 0.0 0.0 0.00 0.00 0.00 90 1004.2
20260508200010 19 130 0.0 0.0 0.00 0.00 0.00 90 1004.3
20260508194509 20 130 0.0 0.0 0.00 0.00 0.00 90 1004.3
20260508193008 20 130 0.0 0.0 0.00 0.00 0.00 90 1004.6
20260508191509 20 130 1.6 0.0 0.00 0.00 0.00 90 1004.7
20260508190006 21 130 0.0 0.0 0.00 0.00 0.00 90 1004.7
20260508184505 20 130 3.2 0.0 0.00 0.00 0.00 90 1004.7
20260508183003 20 130 1.6 0.0 0.00 0.00 0.00 90 1005.0
20260508181606 20 130 3.2 0.0 0.00 0.00 0.00 90 1005.1
20260508180059 20 130 0.0 0.0 0.00 0.00 0.00 90 1005.5
20260508174556 18 130 0.0 0.0 0.00 0.00 0.00 90 1005.6
20260508173049 18 130 1.6 0.0 0.00 0.00 0.00 90 1005.6
20260508171546 18 130 0.0 0.0 0.00 0.00 0.00 90 1005.9
20260508170043 18 130 0.0 0.0 0.00 0.00 0.00 90 1005.9
20260508164539 18 130 1.6 0.0 0.00 0.00 0.00 90 1005.9
20260508163045 17 130 0.0 0.0 0.00 0.00 0.00 90 1005.9
20260508161533 17 130 0.0 0.0 0.00 0.00 0.00 90 1005.9
20260508160052 17 130 0.0 0.0 0.00 0.00 0.00 90 1006.0
20260508154526 17 130 0.0 0.0 0.00 0.00 0.00 90 1006.1
20260508153025 16 130 0.0 0.0 0.00 0.00 0.00 90 1006.5
20260508151518 15 130 0.0 0.0 0.00 0.00 0.00 90 1006.5
20260508150019 13 130 0.0 0.0 0.00 0.00 0.00 90 1006.3
20260508144510 11 130 0.0 0.0 0.00 0.00 0.00 90 1006.2
20260508143007 8 130 0.0 0.0 0.00 0.00 0.00 90 1006.2
20260508141504 6 130 0.0 0.0 0.00 0.00 0.00 90 1006.3
20260508140002 6 130 0.0 0.0 0.00 0.00 0.00 90 1006.3
20260508134559 6 130 0.0 0.0 0.00 0.00 0.00 90 1006.1
20260508133100 6 130 1.6 0.0 0.00 0.00 0.00 90 1005.7
20260508131556 7 130 0.0 0.0 0.00 0.00 0.00 90 1005.6
20260508130057 8 130 0.0 0.0 0.00 0.00 0.00 90 1005.1
20260508124550 8 130 0.0 0.0 0.00 0.00 0.00 90 1004.9
20260508123049 7 130 0.0 0.0 0.00 0.00 0.00 90 1004.8
20260508121602 7 130 0.0 0.0 0.00 0.00 0.00 90 1004.9
20260508120046 7 130 0.0 0.0 0.00 0.00 0.00 90 1004.6
20260508114544 6 130 0.0 0.0 0.00 0.00 0.00 90 1004.5
20260508113042 7 130 0.0 0.0 0.00 0.00 0.00 90 1004.4
20260508111540 8 130 0.0 0.0 0.00 0.00 0.00 90 1004.0
20260508110049 7 130 0.0 0.0 0.00 0.00 0.00 90 1003.8
20260508104536 8 130 0.0 0.0 0.00 0.00 0.00 90 1003.7
20260508103037 9 130 0.0 0.0 0.00 0.00 0.00 90 1003.7
20260508101536 11 130 0.0 0.0 0.00 0.00 0.00 90 1003.6
20260508100034 8 130 0.0 0.0 0.00 0.00 0.00 90 1003.6
20260508094533 10 130 0.0 0.0 0.00 0.00 0.00 90 1003.4
20260508093031 8 130 0.0 0.0 0.00 0.00 0.00 90 1003.5
20260508091530 9 130 0.0 0.0 0.00 0.00 0.00 90 1003.7
20260508090030 9 130 0.0 0.0 0.00 0.00 0.00 90 1003.5
20260508084528 8 130 0.0 0.0 0.00 0.00 0.00 90 1003.6
20260508083111 8 130 0.0 0.0 0.00 0.00 0.00 90 1003.5
20260508081527 8 130 1.6 0.0 0.00 0.00 0.00 90 1003.5
20260508080024 10 130 0.0 0.0 0.00 0.00 0.00 90 1003.6
20260508074529 10 130 0.0 0.0 0.00 0.00 0.00 90 1003.6
20260508073024 10 130 0.0 0.0 0.00 0.00 0.00 90 1003.6
20260508071524 11 130 0.0 0.0 0.00 0.00 0.00 90 1003.4
20260508070017 11 130 0.0 0.0 0.00 0.00 0.00 90 1003.2
20260508064536 11 130 0.0 0.0 0.00 0.00 0.00 90 1003.4
20260508063013 12 130 0.0 0.0 0.00 0.00 0.00 90 1003.3
20260508061511 11 130 0.0 0.0 0.00 0.00 0.00 90 1003.3
20260508060010 11 130 0.0 0.0 0.00 0.00 0.00 90 1003.2